Regional Weather Roundup
Issued by NWS

Home | Current Version | Previous Version | Graphics & Text | Print | Product List | Glossary On
Versions: 1 2 3 4 5 6 7 8 9 10 11 12 13 14 15 16 17 18 19 20 21 22 23 24 25 26 27 28 29 30 31 32 33 34 35 36 37 38 39 40 41 42 43 44 45 46 47 48 49 50
000
ASUS43 KLOT 170710
RWRIL

ILLINOIS REGIONAL WEATHER ROUNDUP
NATIONAL WEATHER SERVICE CHICAGO/ROMEOVILLE IL
200 AM CDT WED SEP 17 2014

NOTE: "FAIR" INDICATES FEW OR NO CLOUDS BELOW 12,000 FEET WITH NO
SIGNIFICANT WEATHER AND/OR OBSTRUCTIONS TO VISIBILITY.

* THESE STATIONS ARE NOT UNDER NWS QUALITY CONTROL. THEY ALSO MAY NOT
  REPORT WEATHER SUCH AS PRECIPITATION OR FOG.

ILZ001-002-007-009-015-016-024-170800-
NORTHWEST ILLINOIS

CITY           SKY/WX    TMP DP  RH WIND       PRES   REMARKS
MOLINE         CLEAR     45  43  93 CALM      30.07F
STERLING*      CLEAR     43  39  87 CALM      30.07F
SAVANNA*       CLEAR     43  42  95 CALM      30.07S
$$

ILZ003-004-008-010-011-017-018-170800-
NORTH CENTRAL ILLINOIS

CITY           SKY/WX    TMP DP  RH WIND       PRES   REMARKS
ROCKFORD       CLEAR     45  42  89 CALM      30.09F
FREEPORT*      CLEAR     42  40  91 CALM      30.08F
ROCHELLE*      CLEAR     40  39  96 CALM      30.08F
DE KALB*       CLEAR     42  40  90 CALM      30.08F
PERU*          CLEAR     46  42  88 CALM      30.08F
$$

ILZ005-006-012>014-019>023-170800-
NORTHEAST ILLINOIS

CITY           SKY/WX    TMP DP  RH WIND       PRES   REMARKS
CHICAGO-OHARE  CLEAR     53  47  79 CALM      30.07F
CHICAGO-MIDWAY CLEAR     55  48  77 CALM      30.07F
AURORA         CLEAR     41  39  93 CALM      30.07F
LANSING*       CLEAR     45  45  97 CALM      30.08F FOG
JOLIET*        CLEAR     43  42  96 CALM      30.09S
WAUKEGAN       CLEAR     46  44  93 SW3       30.06F FOG
DUPAGE AIRPORT CLEAR     45  42  89 CALM      30.07F
KANKAKEE*      CLEAR     44  44  99 CALM      30.09S FOG
WHEELING       CLEAR     49  44  83 CALM      30.08S
MORRIS*        CLEAR     45  45 100 CALM      30.07S
ROMEOVILLE*    CLEAR     46  46 100 CALM      30.07F FOG
NORTHERLY ISL    N/A     56  48  74 S5          N/A
$$

LMZ740>746-170800-
SOUTHERN LAKE MICHIGAN

STATION/POSITION SKY/WX   TEMP    WIND        PRES    VSBY  WAVE
                          AIR SEA DIR/SP/G                  HT/PER
                          (F)     (DEG/KT/KT) (MB)    (MI)  (FT/S)
SOUTHERN BUOY              60 64  220/  6/  8 1018.3F         0
WAUKEGAN HARBOR            53     220/  5/  6   N/A
HARRISON CRIB              59     170/ 11/ 13   N/A
BURNHAM HARBOR             56     180/  4/  9   N/A
CALUMET HARBOR             54     170/  3/  3 1017.2S
MICHIGAN CITY              50     120/  3/  4   N/A
MICHIGAN CITY 6N           56 64  150/  8/ 10   N/A           1/ 2
ST. JOSEPH                 58 66  140/  8/ 10   N/A           1/ 3
$$

ILZ025>027-034>036-040-047-049-050-058-095>099-170800-
WEST-CENTRAL ILLINOIS

CITY           SKY/WX    TMP DP  RH WIND       PRES   REMARKS
QUINCY         CLEAR     53  50  89 S6        30.06F
GALESBURG*     CLEAR     43  42  95 SE3       30.07F
MACOMB*        CLEAR     44  44  99 CALM      30.09F
JACKSONVILLE*  CLEAR     51  49  93 CALM      30.09S
PITTSFIELD*    CLEAR     49  46  92 CALM      30.09S
$$

ILZ028>032-037-038-041>044-048-051>054-059>061-170800-
CENTRAL ILLINOIS

CITY           SKY/WX    TMP DP  RH WIND       PRES   REMARKS
PONTIAC        CLEAR     45  45 100 CALM      30.08S
DECATUR        CLEAR     48  45  89 CALM      30.09S
PEORIA         CLEAR     50  46  86 CALM      30.08F
LACON*         CLEAR     44  43  95 CALM      30.07F
LINCOLN*       CLEAR     48  47  94 CALM      30.07S
SPRINGFIELD    CLEAR     47  45  93 CALM      30.09S
TAYLORVILLE    CLEAR     45  45 100 CALM      30.09S
$$

ILZ033-039-045-046-055>057-062-063-170800-
EAST-CENTRAL ILLINOIS

CITY           SKY/WX    TMP DP  RH WIND       PRES   REMARKS
CHAMPAIGN      CLEAR     48  46  93 S3        30.09S
DANVILLE*      CLEAR     44  43  99 CALM      30.06S FOG
RANTOUL*       CLEAR     50  46  84 CALM      30.09S
MATTOON        CLEAR     53  48  83 W6        30.08F
PARIS*         CLEAR     45  45 100 CALM      30.10S FOG
$$

ILZ079-100>102-170800-
SOUTHWEST ILLINOIS

CITY           SKY/WX    TMP DP  RH WIND       PRES   REMARKS
BELLEVILLE     CLEAR     48  48 100 CALM      30.09S FOG
CAHOKIA*       FOG       48  47  96 CALM      30.09S VSB 1/2
SPARTA*        CLEAR     50  49  95 CALM      30.11R
$$

ILZ064>066-069>071-074>076-080>082-084>086-088>090-092>094-170800-
SOUTH-CENTRAL ILLINOIS

CITY           SKY/WX    TMP DP  RH WIND       PRES   REMARKS
CARBONDALE     PTCLDY    46  44  93 CALM      30.09F FOG
CAIRO*         FOG       50  47  90 CALM      30.09F VSB 1/2
EFFINGHAM*     PTCLDY    46  44  92 CALM      30.10S FOG
MARION         FOG       48  46  93 CALM      30.10F VSB 3/4
MT. VERNON     CLEAR     45  39  81 CALM      30.10F
CENTRALIA*     FOG       45  44  95 CALM      30.09S VSB 1/2
SALEM*         FOG       47  46  99 CALM      30.10S VSB 1/2
METROPOLIS*      N/A     47  47 100 CALM      30.09F FOG
$$

ILZ067-068-072-073-078-083-087-091-170800-
SOUTHEAST ILLINOIS

CITY           SKY/WX    TMP DP  RH WIND       PRES   REMARKS
LAWRENCEVILLE  FOG       46  44  93 CALM      30.10S VSB 1/2
FLORA*         FOG       45  45 100 CALM      30.10S VSB 1/4
FAIRFIELD*     CLEAR    N/A N/A N/A CALM      30.09F FOG
HARRISBURG*    FOG       47  47 100 CALM      30.11F VSB 1/4
ROBINSON*      FOG       45  45 100 CALM      30.11S VSB 1/4
CARMI*         FOG       46  46 100 CALM      30.09S VSB 1/2
$$

ABBREVIATIONS USED IN REMARKS
   TC - TEMPERATURE IN CELSIUS
  WCI - WIND CHILL INDEX
   HX - HEAT INDEX
  VSB - VISIBILITY
$$



USA.gov is the U.S. government's official web portal to all federal, state and local government web resources and services.